METAR AND TAF INFORMATION
METAR FOR HTZA
ADDS - METARS form results

(1150 UTC 19 May 2019)
Data provider http://aviationweather.gov/metar/data/
 
METAR text: HTZA 191100Z 16010KT 9999 SCT020 30/25 Q1013 NOSIG
Conditions at: HTZA (ZANZIBAR/KISAUNI, TZ) observed 1100 UTC 19 May 2019
Temperature: 30.0°C (86°F)
Dewpoint: 25.0°C (77°F) [RH = 75%]
Pressure (altimeter): 29.91 inches Hg (1013.0 mb)
Winds: from the SSE (160 degrees) at 12 MPH (10 knots; 5.1 m/s)
Visibility: 6 or more miles (10+ km)
Ceiling: at least 12,000 feet AGL
Clouds: scattered clouds at 2000 feet AGL
Weather: no significant weather observed at this time

 AIRPORT MAP

 RUNWAY INFORMATION
Runway 18 Runway length 8077 ft Runway width 148 ft
Runway elevation 54 ft Runway displaced threshold 0 ft Runway heading 174
Runway 36 Runway length 8077 ft Runway width 148 ft
Runway elevation 51 ft Runway displaced threshold 0 ft Runway heading 354

 AIRPORT FREQUENCIES
Type APP Name APP Frequency 121.2 MHZ
Type TWR Name TWR Frequency 121.2 MHZ

 AIRPORT NEAR NAVIGATION AIDS
Type NDB Name Zanzibar Frequency 385 KHZ



Powered by Virtual Airlines Manager [v2.6.2]